Wind_Speed
22 26 23 22 23 22 22 22 23 23 23 22 20 17 16 15 13 12 11 11 10 9 9 11 9 9 8 9 10 11 10 9 9 9 9 10 10 11 11 12 13 11 13
28 23 20 23 23 23 23 23 24 23 23 21 18 16 15 14 13 11 11 10 10 10 9 10 9 8 7 8 9 10 8 8 8 8 10 10 11 11 11 12 14 13 14
28 21 19 21 22 22 23 24 24 24 21 19 17 16 14 13 11 10 9 9 9 9 9 9 9 7 7 6 7 5 6 8 8 6 8 8 8 10 11 12 13 13 14
23 21 19 21 24 23 23 25 23 20 19 18 17 15 13 12 10 10 9 10 9 9 8 8 8 7 6 5 5 3 5 7 8 7 7 9 10 10 10 14 13 13 13
21 21 20 23 23 23 23 22 20 19 18 17 15 13 11 10 9 9 9 11 9 8 8 7 7 6 6 5 4 3 3 5 7 7 6 8 9 10 10 13 13 13 11
22 21 22 22 22 21 20 18 18 17 16 15 14 12 11 9 8 8 8 9 8 8 7 8 7 6 6 6 5 4 5 5 7 6 6 7 9 11 12 12 12 12 13
22 22 21 22 21 20 19 17 16 15 15 14 12 11 9 8 7 8 7 8 8 7 7 8 8 9 8 7 6 4 6 6 6 6 7 8 7 11 11 12 12 13 13
23 23 21 21 20 19 18 16 15 14 13 12 11 10 9 8 8 7 7 6 8 6 7 8 8 9 10 10 9 5 5 5 6 6 7 7 7 9 11 11 11 11 12
23 23 21 20 18 17 16 15 14 13 11 11 10 9 8 7 7 6 6 6 6 6 8 8 8 9 9 10 9 6 4 4 6 5 5 6 8 8 10 9 10 10 10
22 21 21 20 18 16 15 14 12 11 10 10 8 7 5 6 5 4 4 5 6 7 7 7 7 8 7 7 8 4 3 5 5 5 5 6 8 8 8 9 8 9 8
20 21 21 21 19 17 15 13 11 10 9 9 7 6 4 2 1 1 3 5 4 5 6 6 5 7 6 5 5 5 6 4 4 4 5 8 8 7 7 8 8 8 8
24 23 22 21 20 18 15 13 11 9 8 8 7 6 3 3 2 1 1 4 4 4 4 3 3 4 4 4 2 5 1 3 3 3 3 8 9 8 7 9 8 7 7
25 23 22 21 19 18 16 14 12 11 9 8 8 7 5 3 1 1 1 1 2 1 1 2 1 1 1 2 4 3 3 3 3 3 2 6 7 8 8 8 7 8 7
25 25 23 22 20 19 16 15 13 12 11 9 9 9 6 4 2 2 2 1 1 2 1 1 1 2 2 2 4 6 5 3 2 2 1 2 4 4 9 9 9 9 9
26 25 24 23 21 20 18 16 15 14 13 11 11 10 8 5 3 2 2 2 3 3 3 2 2 2 4 4 3 3 2 2 2 1 1 2 2 1 3 8 10 8 8
26 26 24 24 23 20 20 18 16 14 13 12 11 11 10 7 5 3 5 6 5 7 5 2 2 1 3 2 2 2 1 1 0 2 2 2 3 2 0 3 7 8 8
27 25 26 24 23 22 21 20 17 15 14 13 12 14 12 10 8 6 7 6 6 6 4 2 2 3 3 1 6 4 3 0 2 2 3 3 1 1 3 1 3 6 9
26 26 25 23 24 23 21 20 19 16 15 14 14 15 15 13 11 10 9 7 6 6 5 4 2 3 2 1 3 1 1 3 1 3 3 2 2 1 2 2 2 2 4
26 25 25 24 24 24 22 20 19 18 18 15 14 14 16 16 14 11 10 8 8 6 4 2 2 1 1 2 1 2 2 0 5 3 2 1 1 2 2 1 2 2 0
27 25 24 25 25 24 21 20 17 17 17 16 16 17 17 16 17 15 11 12 8 6 6 3 2 1 1 2 3 3 5 4 4 2 2 2 1 1 2 2 2 1 0
27 27 27 26 27 25 24 22 21 21 18 17 17 18 20 19 16 17 13 13 10 8 6 5 3 3 1 1 2 4 5 5 5 3 3 4 4 5 4 2 2 2 2
31 31 30 31 29 30 26 26 20 21 19 19 16 17 16 17 16 17 17 13 11 8 8 7 6 3 1 1 1 2 2 3 4 4 3 4 5 5 5 4 4 4 5
32 33 32 33 32 30 27 21 18 13 14 15 17 16 18 18 17 17 19 17 14 11 8 9 8 6 2 2 2 1 2 2 3 1 1 2 3 4 5 5 5 5 5
35 33 34 33 33 33 32 25 25 24 23 24 22 19 18 21 19 17 19 19 18 12 10 9 10 7 4 5 4 2 2 1 3 4 4 3 3 4 3 3 4 4 5
32 31 32 34 35 34 35 34 30 27 24 19 20 21 26 24 24 21 20 18 19 17 13 12 11 11 7 5 5 5 3 2 3 3 3 6 6 6 5 4 4 4 4
32 31 29 30 34 35 37 38 34 30 28 22 21 20 21 22 21 26 21 19 21 18 16 13 13 13 11 7 6 7 6 4 6 5 4 5 8 5 7 7 8 7 7
Wind_Direction
140 143 145 144 141 136 136 136 133 137 138 135 132 127 124 122 115 105 102 96 92 88 97 98 104 107 108 108 108 96 87 86 101 111 117 122 112 116 113 121 103 113 113
140 139 143 140 138 135 134 132 133 138 139 136 131 131 128 119 110 108 99 92 84 82 81 87 100 106 109 110 103 91 89 87 100 120 122 126 117 117 113 122 116 117 115
140 141 138 140 136 137 137 137 137 137 138 136 135 131 124 119 114 104 95 90 87 76 78 81 89 103 99 98 101 96 106 105 107 117 111 121 120 120 121 118 128 120 115
142 143 139 140 140 137 139 141 138 134 136 136 134 131 126 120 114 103 95 92 82 76 75 81 79 90 105 115 116 123 123 111 106 130 106 129 120 120 124 131 125 133 131
143 143 143 140 141 139 138 139 137 134 136 137 134 130 125 121 114 103 95 86 78 76 81 88 84 87 99 111 108 106 121 133 115 115 121 119 125 128 124 118 121 121 121
145 146 147 143 142 141 139 139 137 139 141 138 133 129 120 116 110 101 88 82 76 74 80 80 83 82 89 86 90 107 97 155 139 109 119 135 130 133 133 126 126 126 126
148 150 150 148 147 145 140 143 141 142 141 138 132 121 117 115 108 92 82 75 67 69 76 82 78 70 66 71 68 57 96 122 134 118 122 130 123 127 125 118 118 115 125
150 154 155 155 153 148 147 148 148 144 144 138 131 124 119 111 99 90 82 70 67 75 81 82 73 67 67 65 70 62 94 80 125 115 130 129 153 136 122 115 109 115 117
156 157 159 161 159 155 155 156 153 149 146 142 139 130 128 116 103 91 85 88 91 97 92 81 70 64 57 54 77 85 74 73 123 123 131 138 155 137 135 126 134 122 124
163 164 165 168 168 165 167 166 161 159 155 150 144 131 131 120 106 88 82 89 102 109 99 82 68 58 52 51 56 98 78 74 125 129 144 157 146 151 144 148 131 136 129
169 173 175 174 175 175 172 176 173 172 166 162 147 154 155 146 128 90 100 95 108 102 97 88 62 52 47 38 57 62 65 78 132 138 157 173 155 155 157 160 157 153 140
177 180 181 182 182 182 182 181 186 183 182 184 184 182 190 204 183 138 96 105 109 116 92 72 42 33 40 48 72 75 80 75 114 112 168 176 176 170 180 170 174 159 163
183 186 188 187 188 187 188 191 192 196 197 202 202 207 212 217 229 297 182 154 158 175 165 145 93 332 92 9 64 110 102 110 118 135 128 179 186 183 189 187 188 172 179
189 192 192 193 193 193 195 199 201 202 205 206 211 212 224 244 266 237 211 210 221 282 279 270 274 79 61 73 92 98 84 139 122 92 91 141 180 200 203 191 192 187 183
192 194 195 195 197 197 201 204 207 209 212 212 214 218 224 235 245 238 232 247 255 295 318 357 59 57 114 113 104 93 88 128 184 124 100 113 87 186 217 210 196 197 200
194 197 196 198 199 201 204 209 212 214 216 217 219 219 225 230 243 257 260 273 302 292 307 270 349 56 142 254 94 84 155 198 227 198 173 149 112 45 213 213 204 205 206
197 197 200 200 200 204 209 214 216 217 218 220 222 223 228 232 242 257 268 281 296 298 284 278 335 360 12 123 156 81 34 287 306 186 164 169 153 64 59 204 203 209 210
196 199 201 201 203 206 210 213 217 219 218 222 224 225 229 230 234 246 262 269 281 283 291 270 297 345 26 97 153 79 152 317 208 118 143 178 207 161 70 82 114 165 207
200 200 202 203 206 207 210 214 219 223 224 226 229 232 235 237 241 242 246 255 272 270 256 262 356 17 20 39 108 51 46 1 150 125 129 158 211 190 147 87 94 93 151
204 203 203 205 209 209 210 215 218 222 227 231 234 240 245 237 240 238 240 246 252 241 247 250 283 191 61 43 76 85 72 76 122 80 78 68 33 148 152 117 98 23 302
206 205 204 203 208 206 206 209 213 216 220 225 231 243 241 238 234 231 228 235 242 244 236 236 238 203 116 40 121 103 72 81 85 68 59 59 60 87 101 95 69 52 74
205 207 205 207 207 209 207 208 208 212 219 219 225 236 223 223 226 225 227 228 232 236 240 228 227 216 184 176 116 115 158 126 78 62 82 81 93 92 83 70 56 75 90
207 205 205 206 208 210 207 205 210 212 215 218 223 225 220 223 231 233 233 230 235 239 231 232 230 227 260 139 153 58 178 200 182 95 121 106 104 112 101 88 87 93 92
210 207 205 207 208 212 211 205 205 211 213 220 219 220 221 227 231 234 235 232 235 231 232 233 236 231 214 186 131 167 166 149 218 188 184 181 169 166 156 127 112 115 107
211 210 209 206 209 209 210 209 210 216 221 223 222 221 225 230 233 235 233 234 232 233 236 234 239 234 228 209 178 161 171 178 209 256 213 193 209 208 208 207 199 179 172
210 212 211 206 209 209 212 213 212 214 216 218 220 222 226 227 231 232 231 234 234 231 233 235 235 235 230 220 204 199 201 202 200 207 230 227 230 212 226 235 235 222 213
Height
814 817 819 822 823 825 826 828 829 831 833 835 837 838 840 841 842 842 843 843 843 843 843 844 845 846 846 846 846 845 845 846 846 847 848 849 849 849 849 850 851 853 853
814 818 821 823 825 828 828 830 832 834 836 837 839 841 841 842 843 844 845 845 845 845 846 845 846 847 847 847 847 847 847 848 848 848 850 850 851 851 851 852 852 854 855
816 820 823 825 827 829 831 832 834 836 839 839 840 842 843 843 845 846 847 847 847 847 847 847 847 848 848 848 848 848 849 849 849 850 851 852 852 852 853 853 853 855 856
819 822 825 827 829 831 833 835 837 839 840 841 842 844 844 846 847 848 849 849 849 849 849 849 849 849 849 849 849 850 849 850 850 851 852 852 853 853 854 854 854 855 856
820 823 827 829 831 833 835 837 839 841 842 843 844 846 847 848 849 850 851 851 851 851 851 850 850 850 850 850 851 852 851 851 851 852 854 853 854 855 855 854 855 857 859
821 825 828 830 833 835 837 839 841 842 844 845 846 848 849 850 851 852 852 852 852 851 851 851 851 851 851 852 851 852 853 853 853 854 855 855 855 855 856 857 858 858 859
823 827 830 832 834 837 839 841 842 844 846 846 848 849 851 852 853 853 853 853 853 853 853 852 852 852 852 853 853 853 853 853 855 855 856 857 857 858 858 859 859 860 862
824 828 831 834 836 838 840 842 844 845 847 848 850 851 852 854 854 854 855 855 855 854 854 853 853 853 854 854 854 854 854 855 856 856 857 858 859 859 860 861 862 863 864
826 829 832 835 838 839 842 843 845 847 848 850 851 852 854 854 855 855 856 856 855 855 855 855 855 855 855 855 855 855 856 856 857 858 859 860 860 861 861 862 864 864 865
827 830 832 835 838 841 843 844 846 848 850 851 852 854 854 855 856 856 856 856 856 856 857 857 857 856 856 856 856 856 856 857 858 859 860 861 861 862 863 865 865 866 867
827 829 832 835 838 840 843 845 847 849 850 852 854 855 855 856 856 856 856 857 858 858 858 858 858 858 858 858 857 857 857 858 859 860 860 861 862 864 865 866 867 867 869
825 828 831 834 837 840 843 845 848 850 851 852 854 856 856 856 856 856 856 857 858 858 859 859 859 859 859 860 859 859 859 858 859 860 861 861 863 864 866 867 868 869 870
823 827 829 833 836 839 842 844 847 849 850 851 852 854 855 855 856 856 857 857 858 858 859 859 859 859 859 859 859 860 860 859 860 860 861 861 863 865 867 868 869 870 871
821 824 828 831 834 838 841 843 845 847 849 850 852 853 854 855 855 856 857 857 858 859 858 858 858 859 859 859 860 860 860 860 861 861 862 862 864 865 867 868 869 870 871
819 822 826 829 832 836 839 842 844 845 848 849 850 852 854 855 855 856 857 857 858 857 858 860 858 859 859 860 860 860 860 861 861 862 863 863 865 866 867 867 869 870 871
816 819 823 827 830 834 837 839 842 844 846 848 849 851 852 854 855 856 857 857 858 857 857 858 859 858 859 859 860 860 860 861 861 862 863 864 865 866 867 867 869 869 871
811 816 820 824 827 831 834 837 841 843 845 846 848 849 851 852 854 855 856 857 857 857 857 857 858 858 858 858 859 859 860 860 860 861 862 864 866 866 866 867 867 868 870
809 812 817 821 824 828 831 835 838 841 843 845 846 848 849 851 852 854 855 856 856 856 858 858 858 859 859 859 859 859 860 860 860 862 863 864 865 866 866 866 867 868 869
805 809 813 818 821 824 828 832 835 838 840 843 845 846 848 850 851 853 854 855 856 856 858 858 858 859 859 860 861 860 860 860 860 863 864 865 865 866 867 867 867 868 869
802 805 809 813 817 821 825 829 832 835 837 840 842 843 845 847 849 851 853 854 855 856 857 857 858 859 859 860 861 861 861 861 862 863 864 865 866 866 867 868 868 869 868
798 801 803 808 811 816 820 824 828 830 834 837 839 840 842 844 846 849 851 853 854 855 856 857 858 859 860 860 861 862 863 863 863 864 865 866 866 866 867 868 868 869 869
790 793 798 801 805 809 815 819 824 826 830 833 836 837 838 841 843 846 848 850 852 854 855 856 857 858 859 860 861 861 860 864 865 866 865 867 867 869 869 869 869 869 870
782 785 790 795 800 805 810 816 821 825 827 830 833 835 836 839 841 843 845 848 850 852 854 855 856 857 859 860 861 862 861 860 864 866 866 868 868 870 870 869 869 869 869
772 778 783 789 795 800 805 811 814 817 820 824 828 832 834 837 839 841 843 845 848 850 852 854 855 856 858 859 862 862 862 863 861 863 866 868 868 869 870 870 870 870 870
769 773 778 782 788 794 798 803 807 813 817 821 825 827 830 833 836 838 839 842 844 847 849 851 853 854 856 858 860 861 862 863 863 863 860 864 866 867 868 869 870 870 869
762 768 773 777 780 787 792 796 801 805 810 816 819 822 825 829 832 834 836 838 841 844 846 849 850 852 854 856 858 859 860 860 860 861 861 862 861 865 866 866 867 868 869